Theta_e
323 321 323 320 307 307 299 300 305 303 304 308 307 307 306 307 304 301 323 330 335 339 347 351 351 354 354 354 353 353 354 353 353 353 353 351 350 349 346 344 343 341 341 339 338 336 336 337 338
320 318 320 314 303 297 298 303 302 305 307 308 308 308 307 305 311 315 322 329 336 340 347 351 348 352 354 354 353 353 353 353 353 353 352 351 350 347 345 343 341 340 340 339 337 333 331 331 334
317 313 314 309 304 297 298 303 304 306 307 307 307 309 309 308 314 317 325 332 338 340 347 351 347 352 353 353 353 353 353 353 352 350 351 350 349 346 344 342 340 339 339 337 335 332 329 327 328
317 316 310 304 299 300 301 303 304 306 307 308 307 306 309 314 317 323 327 333 338 341 347 347 348 352 353 352 352 353 353 351 349 350 349 349 348 346 343 341 339 337 337 335 333 330 326 324 326
315 312 305 301 299 301 303 304 304 305 306 307 307 305 307 313 320 328 330 336 337 341 346 349 346 349 349 350 351 350 350 349 349 348 350 347 346 344 343 340 338 336 335 333 331 328 324 322 324
311 309 302 298 299 301 303 304 305 305 304 306 306 306 307 312 316 325 331 334 338 340 344 347 341 344 346 348 348 348 349 348 348 348 347 346 345 343 340 337 336 335 333 331 330 326 323 320 322
307 304 300 299 299 300 302 304 304 304 303 305 307 303 308 309 316 324 327 330 337 340 343 345 347 346 336 340 343 344 345 346 346 346 346 344 343 342 339 337 337 334 333 330 328 325 322 318 319
309 306 298 299 298 299 303 303 305 304 303 307 308 303 304 306 312 322 324 321 323 327 336 341 344 343 348 350 336 338 340 341 343 342 339 338 337 336 334 332 336 334 332 330 327 325 322 317 315
305 301 297 297 298 300 304 303 304 305 304 305 305 304 302 305 310 313 313 312 312 311 312 316 328 338 342 345 344 335 335 336 337 338 331 332 342 340 335 329 333 334 332 329 327 325 319 310 305
305 300 297 300 302 302 303 303 304 303 303 303 303 304 304 305 306 306 306 306 307 307 309 310 312 318 335 340 344 347 346 346 345 345 345 344 342 341 334 326 328 330 329 329 327 322 316 317 309
302 299 299 300 302 303 303 302 304 302 301 303 302 302 302 303 303 303 304 304 304 306 309 310 311 312 319 337 341 343 344 346 345 343 344 343 341 339 331 330 329 329 323 326 325 323 322 320 315
300 301 301 302 303 302 302 303 302 302 301 300 301 300 300 300 300 300 301 303 304 306 308 311 312 313 316 333 338 340 341 341 342 343 342 340 341 338 330 329 329 328 326 324 322 320 322 320 315
301 301 302 303 302 302 301 301 301 298 300 300 299 299 298 298 299 300 301 303 304 305 308 311 314 317 316 333 337 338 337 337 336 336 334 335 338 336 333 329 327 326 326 324 322 320 319 321 317
301 300 301 302 301 301 300 299 300 297 300 298 298 297 297 297 297 299 300 301 302 304 307 308 313 319 318 332 334 331 328 326 325 323 327 327 328 329 331 328 326 325 322 320 320 317 315 314 314
300 298 300 301 299 299 301 296 297 297 299 297 296 296 295 295 296 296 297 299 301 305 303 305 312 321 326 320 316 315 315 314 314 315 316 319 322 322 322 321 319 319 318 317 314 311 311 312 309
298 298 296 298 298 298 299 296 295 297 298 296 295 295 294 294 294 296 297 299 301 302 301 305 312 313 311 311 310 309 308 309 309 310 313 315 316 316 314 313 314 314 313 311 310 308 309 308 306
295 295 293 296 298 298 298 297 296 296 297 295 294 294 294 294 295 296 296 298 300 299 300 303 308 308 307 306 304 303 302 302 302 303 306 309 311 312 311 309 310 311 309 308 308 306 307 305 305
295 292 293 295 296 297 296 297 294 294 295 294 293 293 293 293 292 294 295 296 299 300 300 302 302 306 306 304 302 300 298 298 297 300 301 302 304 306 307 306 306 306 304 304 306 305 302 301 300
296 294 294 295 295 295 297 297 297 294 293 293 293 293 292 292 292 293 294 295 298 299 300 301 302 303 306 305 304 303 300 298 297 297 298 300 301 302 303 305 305 305 303 303 303 305 304 304 305
294 293 293 294 294 294 295 295 298 293 293 293 292 292 292 291 292 292 293 294 295 296 298 300 301 302 304 304 302 300 296 294 294 293 293 294 295 296 297 299 299 300 301 301 301 302 304 304 303
293 292 293 293 293 294 292 293 294 289 290 290 291 292 292 292 291 291 291 292 293 293 294 295 297 299 300 298 297 295 295 294 292 291 291 291 292 292 292 293 293 293 295 294 295 297 299 299 300
291 294 293 291 291 289 291 289 292 290 289 289 289 291 291 291 290 290 290 290 290 290 292 293 294 294 295 297 297 297 293 289 289 289 290 290 291 290 291 291 291 291 291 291 291 291 292 294 291
293 294 292 292 291 290 289 288 293 289 287 288 289 290 292 291 291 289 289 288 289 290 290 291 291 291 292 292 292 291 289 289 289 289 289 289 289 290 290 290 290 290 290 290 290 290 290 290 289
293 292 290 290 290 284 290 289 291 289 291 290 290 290 291 290 289 288 288 288 287 289 290 290 289 288 290 290 290 290 289 289 288 289 288 288 288 288 288 288 289 288 288 288 288 289 288 288 288
293 291 286 284 283 283 286 286 292 295 292 292 290 290 291 290 289 287 287 287 287 287 288 288 288 287 288 289 289 289 289 289 288 288 288 287 287 287 286 287 287 286 286 286 287 287 286 286 286
290 293 288 281 280 284 284 283 290 291 292 291 293 292 291 289 289 288 288 287 287 287 287 287 287 286 288 288 288 288 289 288 288 288 287 286 286 285 286 285 285 285 285 285 285 285 285 285 285
289 287 293 283 279 284 287 288 290 288 287 288 289 290 289 289 289 288 288 287 287 286 286 287 287 286 287 287 288 288 288 287 287 287 287 286 286 284 284 284 284 284 284 283 283 284 283 284 284
291 294 286 287 281 280 283 284 289 286 288 287 287 288 289 290 289 289 288 287 287 286 286 287 287 286 287 287 287 287 287 287 287 286 285 285 284 284 283 283 282 282 282 282 283 283 283 282 283
287 287 288 290 288 284 282 285 292 292 292 288 289 290 291 290 289 289 289 288 286 286 286 286 286 286 286 287 287 286 286 286 286 285 284 284 283 282 282 281 281 281 281 281 281 281 281 280 281
292 290 290 287 281 284 283 287 290 292 292 292 291 291 292 291 290 290 290 288 286 285 285 285 285 286 286 287 286 286 286 285 285 284 283 283 282 282 281 281 280 280 279 280 279 279 279 279 279
Wind_Speed
3 4 2 3 4 2 4 5 2 2 2 2 1 3 7 5 6 5 3 5 2 8 12 11 12 15 14 12 11 10 10 10 11 9 13 12 12 13 12 12 12 11 12 12 12 12 12 12 11
3 2 2 0 3 5 6 2 4 3 3 1 2 1 1 8 3 4 2 5 2 10 13 12 8 13 14 11 11 10 11 10 10 11 11 11 11 12 12 12 12 11 11 12 12 12 12 11 10
1 3 3 1 0 4 5 2 2 2 1 1 2 2 2 4 5 4 5 5 4 9 12 11 7 12 14 11 11 9 9 10 11 12 11 11 11 11 11 11 10 11 11 11 11 11 11 10 10
2 3 3 2 7 3 3 3 0 2 3 0 1 5 4 4 4 7 4 4 3 6 10 8 5 7 12 12 11 10 9 9 9 11 10 9 13 11 10 9 9 9 10 10 10 11 11 11 9
1 2 2 3 4 3 1 0 1 2 1 2 1 5 4 4 5 7 6 3 3 6 7 9 6 6 9 13 13 11 9 8 7 8 10 12 14 12 9 8 7 8 10 9 10 11 11 11 10
1 2 3 5 5 3 2 1 2 2 2 3 2 3 5 7 10 8 5 5 4 4 4 6 7 6 7 9 13 13 11 9 8 8 8 10 12 13 9 6 5 7 9 8 10 11 11 11 11
1 1 1 3 6 4 3 1 3 2 3 4 2 3 6 11 12 6 6 6 6 5 3 3 6 7 7 6 6 8 11 11 8 7 8 9 9 12 10 7 7 8 9 8 9 10 11 11 11
1 0 4 3 7 4 2 2 1 1 3 1 2 3 4 10 12 3 7 9 10 9 7 4 2 4 7 9 5 6 5 8 8 7 6 5 6 10 10 8 8 9 9 8 7 8 8 9 10
1 2 4 5 6 5 3 4 3 1 2 2 5 5 5 8 5 5 4 7 6 7 8 7 6 4 6 8 5 4 4 6 7 6 6 7 6 7 8 8 9 10 9 8 7 8 8 6 7
2 3 3 2 3 5 4 2 2 4 0 4 6 9 7 8 9 9 9 8 9 9 9 7 7 6 6 4 7 8 6 6 5 6 7 6 6 5 5 6 7 9 9 7 8 8 5 3 4
1 2 2 3 3 2 2 2 2 2 2 5 3 4 8 9 10 9 8 8 9 9 7 8 7 6 5 4 3 1 1 2 3 4 4 5 4 6 4 4 3 3 4 3 4 3 2 5 4
3 1 2 2 4 4 3 1 2 2 4 5 8 6 6 8 9 9 8 9 10 10 10 10 8 6 5 2 2 1 0 0 2 3 3 2 3 4 4 3 5 4 3 4 3 2 2 3 4
3 1 3 2 4 4 2 6 1 3 5 6 7 6 7 7 7 6 6 6 9 9 11 11 9 6 4 5 3 3 3 4 7 6 6 5 2 4 3 3 2 2 1 0 1 2 2 2 3
1 3 5 6 4 4 6 2 5 5 7 6 5 6 6 7 7 5 7 8 9 9 10 10 9 5 6 6 7 6 7 8 8 8 8 7 4 4 2 1 1 0 2 3 3 3 3 3 4
1 5 6 7 2 4 7 5 6 5 6 5 4 4 5 7 7 7 7 7 8 7 7 9 9 7 9 12 11 9 8 9 8 7 10 9 8 6 5 5 5 3 3 4 4 4 3 3 3
2 3 5 3 3 3 7 4 7 2 6 2 2 2 3 5 5 5 5 6 7 7 8 8 8 13 14 13 11 9 9 9 8 7 9 11 10 10 9 6 6 5 4 4 3 2 2 2 3
3 6 6 3 2 3 7 2 7 1 4 3 1 2 2 3 5 6 6 7 7 7 6 8 11 13 14 14 12 12 12 9 9 7 9 12 12 12 9 6 6 5 4 3 3 3 2 2 3
7 7 6 8 4 4 6 8 8 3 4 4 3 3 3 4 6 6 6 6 6 6 7 8 8 12 13 11 10 10 9 9 9 9 10 11 10 11 8 8 8 6 5 6 4 4 4 3 4
2 5 8 3 2 5 12 13 11 8 6 7 6 5 5 5 5 5 6 5 6 7 7 8 10 9 9 9 9 9 10 10 10 10 13 13 12 11 10 8 8 7 8 7 5 4 5 5 7
8 10 13 5 3 5 10 14 9 9 6 6 8 8 7 7 6 6 7 7 7 8 8 9 9 8 7 7 8 7 8 9 9 10 12 13 13 12 11 10 9 10 8 11 11 11 5 5 8
13 15 12 10 3 4 6 14 14 4 4 6 6 7 7 8 8 7 7 7 7 9 8 8 9 10 10 13 11 11 10 8 9 10 9 12 14 13 13 13 11 11 10 9 11 11 13 7 7
17 13 10 8 5 10 3 8 5 8 9 10 11 11 11 9 6 6 7 8 8 8 7 8 8 9 8 8 8 11 10 11 9 9 9 10 13 14 13 14 12 12 9 11 10 10 10 9 8
5 5 9 7 11 6 9 8 4 6 13 14 16 15 14 13 11 10 8 6 6 6 7 9 12 11 10 11 12 11 14 10 8 8 11 11 11 12 12 11 11 11 8 10 11 10 10 8 7
14 7 5 3 3 10 15 14 8 8 10 18 18 18 16 13 11 8 6 5 6 6 7 9 12 12 10 10 12 14 14 12 9 9 8 7 7 7 10 10 10 10 9 9 8 8 9 8 6
7 11 5 6 7 8 3 11 11 8 8 14 24 22 19 15 13 11 10 9 7 7 8 9 11 12 10 11 11 12 11 12 12 9 7 8 7 6 8 9 9 8 8 8 7 7 7 7 6
19 19 7 8 7 3 2 9 6 1 6 3 17 19 19 17 14 13 12 10 10 9 7 9 10 12 11 11 11 10 9 7 7 8 7 7 7 6 7 7 7 7 7 7 7 5 5 5 5
10 12 4 5 1 2 6 5 5 6 6 8 15 19 19 18 17 16 14 13 12 10 10 10 10 10 10 10 9 9 9 9 8 9 8 7 7 6 6 6 6 6 6 6 7 5 6 6 6
6 13 7 6 6 7 5 7 8 11 15 13 17 21 21 19 18 16 14 13 12 12 11 11 10 11 10 10 9 8 9 8 8 7 9 8 7 6 5 5 4 4 4 5 6 5 5 7 5
7 9 5 4 4 4 4 7 7 13 19 21 20 22 23 21 19 18 16 14 13 12 12 12 12 12 11 10 10 10 9 8 7 7 7 7 6 5 4 3 3 4 5 5 5 6 6 7 8
12 9 14 9 7 5 3 6 4 4 10 15 16 19 20 21 20 18 17 17 16 15 14 14 13 13 12 11 10 10 9 8 8 7 7 6 5 4 3 2 3 3 4 5 6 7 7 9 9
Wind_Direction
314 337 293 237 215 195 114 106 349 148 171 54 54 323 43 22 14 43 63 163 74 167 168 179 168 147 143 146 143 141 139 138 139 140 124 122 117 102 98 92 82 73 68 61 59 51 51 47 48
343 285 223 188 226 157 112 101 133 74 54 77 138 186 113 70 43 89 145 158 169 165 169 174 163 150 143 151 151 152 150 145 138 128 125 125 119 110 103 94 84 75 65 56 52 45 41 40 40
191 338 262 80 110 116 124 147 93 87 119 237 163 344 26 44 55 38 22 162 135 157 173 170 173 160 150 155 157 160 157 157 151 132 128 132 121 111 107 99 89 77 65 56 49 42 37 33 34
293 173 142 253 118 95 81 98 40 167 148 205 353 112 114 26 7 359 15 137 140 149 173 145 186 177 154 165 166 167 170 166 154 139 138 123 112 110 107 95 86 73 65 52 44 40 35 33 36
28 231 161 132 115 116 183 350 266 176 119 109 308 95 77 56 19 34 87 88 112 146 169 176 188 221 193 177 176 175 176 173 164 157 147 135 126 117 110 99 90 72 53 41 43 39 35 33 36
177 292 206 185 152 154 183 327 241 176 80 98 148 120 78 53 28 29 50 68 66 130 165 189 191 228 247 212 187 176 174 176 175 171 171 151 141 122 116 93 67 79 68 42 43 37 33 32 31
48 257 105 143 154 176 145 273 213 108 143 95 8 157 117 46 21 26 53 61 66 74 113 183 202 223 270 287 226 192 177 175 180 187 181 169 155 123 112 80 63 82 67 54 50 42 37 29 31
75 112 148 176 185 161 121 190 77 358 92 20 299 146 150 358 340 33 70 51 60 47 30 7 247 240 234 225 212 255 197 176 173 177 185 143 96 113 116 116 86 79 71 71 64 56 52 38 34
255 213 184 179 178 150 150 191 137 352 253 47 36 51 3 343 349 55 54 45 29 28 18 3 343 293 248 242 212 240 232 193 174 161 141 165 171 156 150 92 108 96 94 96 79 74 55 43 52
254 250 198 143 157 162 159 251 65 216 312 145 117 83 42 36 39 46 30 14 9 1 353 352 338 317 297 245 252 236 230 233 219 192 172 182 178 144 115 116 126 126 119 122 112 104 88 29 24
131 269 158 177 180 177 198 255 143 235 183 51 16 70 38 39 43 41 33 19 354 342 342 345 329 307 287 260 249 294 317 277 239 226 191 193 181 160 138 148 141 136 135 132 136 135 46 56 28
234 201 221 95 159 163 202 96 214 284 60 52 73 70 52 42 39 27 14 4 353 344 345 340 334 304 254 255 195 153 331 224 257 217 179 202 227 176 156 171 168 167 178 165 160 129 111 82 69
235 216 208 228 198 229 169 233 264 104 111 99 93 72 55 44 34 29 12 8 355 354 349 347 336 312 234 168 148 113 72 41 35 29 22 347 255 199 154 168 183 158 159 164 161 143 136 123 98
130 258 266 259 231 201 216 203 189 135 142 109 88 65 57 46 26 28 19 10 5 356 359 347 347 339 176 122 101 83 70 65 58 45 38 26 28 359 326 138 167 128 35 42 21 23 44 37 8
122 283 284 243 217 201 171 177 186 124 163 117 83 63 46 30 20 21 6 360 357 10 1 4 349 71 92 71 71 68 65 61 54 48 42 40 43 39 50 45 45 41 54 57 64 41 34 55 12
240 254 270 130 177 139 204 176 151 177 214 166 105 89 57 36 22 19 8 5 11 19 22 25 60 75 74 75 71 69 62 65 55 43 46 45 60 70 69 58 51 50 74 76 67 60 60 29 11
200 257 228 268 223 161 219 148 149 83 194 179 153 100 92 78 53 27 16 15 17 24 32 57 74 84 92 92 90 82 73 63 58 51 47 50 52 55 64 59 53 39 56 58 50 56 39 43 4
208 214 218 242 169 214 223 246 164 156 196 191 170 144 113 87 40 17 19 27 44 49 57 73 70 88 91 85 84 78 71 69 58 56 56 51 51 54 63 60 54 46 32 37 27 71 71 43 340
208 217 234 204 165 234 241 251 197 179 183 190 176 157 127 89 60 48 42 45 76 78 89 89 99 104 119 116 107 89 80 79 72 63 53 50 49 48 54 58 55 57 55 48 34 34 37 32 360
226 241 244 272 206 237 255 252 242 195 205 199 174 160 146 133 109 84 72 68 62 64 69 81 83 96 105 109 109 100 99 82 82 77 66 62 57 54 55 57 52 42 49 40 32 23 7 28 17
230 231 233 255 153 231 275 259 226 191 182 168 174 155 153 145 135 113 88 74 74 61 51 62 73 82 91 104 109 107 106 99 87 74 67 58 68 64 58 59 57 52 50 49 38 30 29 23 33
241 217 233 227 236 260 224 282 209 186 186 193 178 180 168 164 148 121 105 78 67 66 73 76 72 73 72 85 97 97 98 98 85 78 77 68 57 59 59 55 53 55 55 49 42 37 37 34 32
255 148 209 219 235 265 201 258 183 173 209 197 188 185 179 174 164 151 132 112 94 93 92 94 93 86 84 89 97 101 106 106 104 98 91 79 70 62 58 59 65 61 55 46 43 39 38 39 39
134 102 83 108 198 249 225 220 194 198 211 179 186 187 182 177 168 157 134 132 113 105 99 99 96 89 91 95 99 105 113 119 119 112 95 84 74 64 59 62 53 53 51 42 36 34 34 29 30
178 159 196 217 205 247 149 215 257 217 179 188 182 183 180 177 174 172 170 160 149 133 122 116 109 100 100 99 102 107 111 113 109 105 102 96 80 68 56 55 54 47 40 39 30 27 26 17 10
195 187 191 216 203 176 127 228 236 5 131 124 182 179 172 177 179 182 176 170 159 152 141 129 127 124 123 119 118 117 114 108 102 101 104 95 92 76 63 60 55 47 36 27 19 19 8 358 352
182 214 181 106 314 248 205 239 224 165 170 155 170 176 181 185 183 186 182 178 170 169 164 152 143 135 134 132 130 121 120 121 120 117 109 104 101 96 84 62 48 39 29 17 3 2 353 344 340
209 150 174 222 212 227 212 249 228 203 197 183 184 187 185 185 186 186 186 183 177 175 169 165 159 156 153 150 140 137 133 130 127 123 108 104 101 95 84 68 49 36 20 5 353 347 344 334 332
162 188 210 213 214 224 249 228 211 195 192 186 193 194 186 185 186 188 189 187 182 179 178 172 172 170 170 166 155 151 149 143 135 125 122 121 121 114 95 70 43 19 7 357 343 336 327 326 321
242 217 190 203 189 242 313 255 147 169 178 187 188 193 190 187 187 193 189 186 182 186 184 184 183 184 181 172 168 163 157 155 147 142 136 145 137 133 121 84 44 9 354 346 335 330 324 321 322